Regional Weather Roundup
Issued by NWS Portland, ME

Current Version | Previous Version | Text Only | Print | Product List | Glossary On
Versions: 1 2 3 4 5 6 7 8 9 10 11 12 13 14 15 16 17 18 19 20 21 22 23 24 25 26 27 28 29 30 31 32 33 34 35 36 37 38 39 40 41 42 43 44 45 46 47 48 49 50
000
ASUS41 KGYX 061110
RWRGYX
WEATHER ROUNDUP FOR MAINE AND NEW HAMPSHIRE
NATIONAL WEATHER SERVICE GRAY ME
700 AM EDT SAT JUN 06 2020

MEZ002-005-006-010-012-015-018-020-021-024-026-027-029-061200-
MAINE

CITY           SKY/WX    TMP DP  RH WIND       PRES   REMARKS
PORTLAND       PTSUNNY   67  65  93 CALM      29.72S
SANFORD        MOSUNNY   68  67  96 S6        29.73S
BAR HARBOR     FOG       57  57 100 CALM      29.74F VSB<1/4
WISCASSET      FOG       62  62 100 CALM      29.72F VSB 1/2
ROCKLAND       FOG       59  59 100 CALM      29.73S VSB 1/4
FRYEBURG       PTSUNNY   66  63  90 CALM      29.73S
LEWISTONAUBURN PTSUNNY   64  64 100 CALM      29.71F FOG
AUGUSTA        FOG       62  62 100 CALM      29.71F VSB<1/4
WATERVILLE     LGT RAIN  63  63 100 S3        29.70S FOG
BANGOR         CLOUDY    66  62  87 CALM      29.72F
GREENVILLE       N/A     57  53  86 NW7       29.79R
MILLINOCKET    LGT RAIN  59  55  87 SE3       29.76R
HOULTON        CLOUDY    57  54  89 N5        29.76R
PRESQUE ISLE   LGT RAIN  53  52  96 S3        29.79S
FRENCHVILLE    CLOUDY    54  45  71 E5        29.79R
CARIBOU        LGT RAIN  55  50  83 CALM      29.78R
$$

NHZ002-005-008-009-011-012-014-061200-
NEW HAMPSHIRE

CITY           SKY/WX    TMP DP  RH WIND       PRES   REMARKS
ROCHESTER      MOSUNNY   70  66  87 CALM      29.73S
NASHUA         CLOUDY    72  70  93 VRB3      29.76S
MANCHESTER     PTSUNNY   73  67  81 S7        29.74R
CONCORD        PTSUNNY   70  68  93 S5        29.75R
LACONIA          N/A     68  67  96 W8        29.74S
PLYMOUTH       CLOUDY    62  61  96 MISG      29.74S FOG
BERLIN         CLOUDY    61  58  90 CALM      29.76F
WHITEFIELD     CLOUDY    64  58  80 NW5       29.75F
JAFFREY        CLOUDY    69  65  86 SW5       29.79S
KEENE          CLOUDY    70  67  90 S8        29.77S
LEBANON        PTSUNNY   67  64  90 CALM      29.73S
MT WASHINGTON  PTSUNNY   50  49  99 W35         N/A
$$

VTZ005-007-008-061200-
VERMONT

CITY           SKY/WX    TMP DP  RH WIND       PRES   REMARKS
ST JOHNSBURY     N/A     63  59  87 MISG      29.72F
MONTPELIER     MOSUNNY   64  62  93 N3        29.78S
BURLINGTON     PTSUNNY   68  64  87 CALM      29.71S
$$

MAZ007-012-024-CTZ003-RIZ002-NYZ038-NYZ072-061200-
SOUTHERN NEW ENGLAND AND NY

CITY           SKY/WX    TMP DP  RH WIND       PRES   REMARKS
BOSTON         CLOUDY    70  66  87 SW12      29.77S
WORCESTER      CLOUDY    70  66  87 SW10      29.80S
NANTUCKET      LGT RAIN  61  59  93 SW13      29.84S VSB 1/2
PROVIDENCE     CLOUDY    68  67  96 SW6       29.81R
HARTFORD       CLOUDY    70  67  90 S10       29.77F
ALBANY         PTSUNNY   71  66  84 SE6       29.76S
NEW YORK CITY  MOSUNNY   71  68  90 VRB3      29.79S FOG
$$

ANZ081-ANZ082-ANZ150-NHZ014-MEZ023>029-061200-
COASTAL MARINE OBSERVATIONS

STATION/POSITION TIME  TEMP    WIND        PRES    WAVE
                       AIR SEA DIR/SP/G            HT/PER
                 (UTC) (F)     (DEG/KT/KT) (MB)    (FT/S)
MOUNT DESERT ROC 1100          190/ 21/ 22 1006.3F
ISLE OF SHOALS   1100   65     200/ 20/ 20 1006.4F
JEFFREYS LEDGE   1008      57                N/A     3/10
GEORGES BANK BUO 1050      50              1014.2S   5/ 8
$$

.............KEY..............
   WCI - WIND CHILL
   TC  - TEMPERATURE IN CELSIUS
   VSB - VISIBILITY IN MILES
   HX  - HEAT INDEX
   FAIR- INDICATES FEW OR NO CLOUDS BELOW 12,000 FT, WITH NO
         SIGNIFICANT WEATHER AND/OR OBSTRUCTIONS TO VISIBILITY.





USA.gov is the U.S. government's official web portal to all federal, state and local government web resources and services.